Data supplied by UK-AIR on 20/9/2009
All Data GMT hour ending 
Status: R =Ratified P=Provisional,P*=As supplied
,,Manchester South,,,,,,,,,,,,,,,,,,,,,,,
Date,time,"Nitric oxide",status,unit,"Nitrogen dioxide",status,unit,"Nitrogen oxides as nitrogen dioxide",status,unit,"Ozone",status,unit,"Sulphur dioxide",status,unit
 
01-01-2000,01:00,,,,,,,,,,,,,,,
01-01-2000,02:00,3,R,ugm-3,,,,,,,48,R,ugm-3,3,R,ugm-3
01-01-2000,03:00,3,R,ugm-3,,,,,,,54,R,ugm-3,3,R,ugm-3
01-01-2000,04:00,3,R,ugm-3,,,,,,,42,R,ugm-3,5,R,ugm-3
01-01-2000,05:00,3,R,ugm-3,,,,,,,34,R,ugm-3,3,R,ugm-3
01-01-2000,06:00,11,R,ugm-3,,,,,,,24,R,ugm-3,3,R,ugm-3
01-01-2000,07:00,14,R,ugm-3,,,,,,,12,R,ugm-3,5,R,ugm-3
01-01-2000,08:00,23,R,ugm-3,,,,,,,6,R,ugm-3,5,R,ugm-3
01-01-2000,09:00,15,R,ugm-3,,,,,,,8,R,ugm-3,8,R,ugm-3
01-01-2000,10:00,9,R,ugm-3,,,,,,,20,R,ugm-3,5,R,ugm-3
01-01-2000,11:00,6,R,ugm-3,,,,,,,26,R,ugm-3,3,R,ugm-3
01-01-2000,12:00,4,R,ugm-3,,,,,,,40,R,ugm-3,3,R,ugm-3
01-01-2000,13:00,3,R,ugm-3,,,,,,,42,R,ugm-3,3,R,ugm-3
01-01-2000,14:00,3,R,ugm-3,,,,,,,46,R,ugm-3,3,R,ugm-3
01-01-2000,15:00,4,R,ugm-3,,,,,,,40,R,ugm-3,3,R,ugm-3
01-01-2000,16:00,5,R,ugm-3,,,,,,,38,R,ugm-3,5,R,ugm-3
01-01-2000,17:00,3,R,ugm-3,,,,,,,34,R,ugm-3,3,R,ugm-3
01-01-2000,18:00,15,R,ugm-3,,,,,,,14,R,ugm-3,3,R,ugm-3
01-01-2000,19:00,15,R,ugm-3,,,,,,,12,R,ugm-3,3,R,ugm-3
01-01-2000,20:00,5,R,ugm-3,,,,,,,16,R,ugm-3,3,R,ugm-3
01-01-2000,21:00,4,R,ugm-3,,,,,,,30,R,ugm-3,3,R,ugm-3
01-01-2000,22:00,3,R,ugm-3,,,,,,,38,R,ugm-3,8,R,ugm-3
01-01-2000,23:00,3,R,ugm-3,,,,,,,38,R,ugm-3,5,R,ugm-3
01-01-2000,24:00,3,R,ugm-3,,,,,,,44,R,ugm-3,3,R,ugm-3
02-01-2000,01:00,1,R,ugm-3,,,,,,,40,R,ugm-3,8,R,ugm-3
02-01-2000,02:00,1,R,ugm-3,,,,,,,50,R,ugm-3,8,R,ugm-3
02-01-2000,03:00,1,R,ugm-3,,,,,,,54,R,ugm-3,11,R,ugm-3
02-01-2000,04:00,1,R,ugm-3,,,,,,,52,R,ugm-3,8,R,ugm-3
02-01-2000,05:00,1,R,ugm-3,,,,,,,54,R,ugm-3,11,R,ugm-3
02-01-2000,06:00,1,R,ugm-3,,,,,,,58,R,ugm-3,5,R,ugm-3
02-01-2000,07:00,1,R,ugm-3,,,,,,,58,R,ugm-3,5,R,ugm-3
02-01-2000,08:00,1,R,ugm-3,,,,,,,62,R,ugm-3,8,R,ugm-3
02-01-2000,09:00,1,R,ugm-3,,,,,,,58,R,ugm-3,8,R,ugm-3
02-01-2000,10:00,1,R,ugm-3,,,,,,,60,R,ugm-3,8,R,ugm-3
02-01-2000,11:00,1,R,ugm-3,,,,,,,56,R,ugm-3,5,R,ugm-3
02-01-2000,12:00,1,R,ugm-3,,,,,,,54,R,ugm-3,5,R,ugm-3
02-01-2000,13:00,3,R,ugm-3,,,,,,,50,R,ugm-3,5,R,ugm-3
02-01-2000,14:00,3,R,ugm-3,,,,,,,44,R,ugm-3,5,R,ugm-3
02-01-2000,15:00,4,R,ugm-3,,,,,,,40,R,ugm-3,8,R,ugm-3
02-01-2000,16:00,3,R,ugm-3,,,,,,,42,R,ugm-3,5,R,ugm-3
02-01-2000,17:00,3,R,ugm-3,,,,,,,40,R,ugm-3,5,R,ugm-3
02-01-2000,18:00,3,R,ugm-3,,,,,,,40,R,ugm-3,5,R,ugm-3
02-01-2000,19:00,1,R,ugm-3,,,,,,,34,R,ugm-3,5,R,ugm-3
02-01-2000,20:00,1,R,ugm-3,,,,,,,38,R,ugm-3,5,R,ugm-3
02-01-2000,21:00,1,R,ugm-3,,,,,,,34,R,ugm-3,5,R,ugm-3
02-01-2000,22:00,1,R,ugm-3,,,,,,,34,R,ugm-3,5,R,ugm-3
02-01-2000,23:00,1,R,ugm-3,,,,,,,32,R,ugm-3,5,R,ugm-3
02-01-2000,24:00,1,R,ugm-3,,,,,,,34,R,ugm-3,5,R,ugm-3
03-01-2000,01:00,1,R,ugm-3,,,,,,,42,R,ugm-3,3,R,ugm-3
03-01-2000,02:00,1,R,ugm-3,,,,,,,46,R,ugm-3,3,R,ugm-3
03-01-2000,03:00,1,R,ugm-3,,,,,,,54,R,ugm-3,3,R,ugm-3
03-01-2000,04:00,1,R,ugm-3,,,,,,,50,R,ugm-3,3,R,ugm-3
03-01-2000,05:00,1,R,ugm-3,,,,,,,58,R,ugm-3,3,R,ugm-3
03-01-2000,06:00,3,R,ugm-3,,,,,,,60,R,ugm-3,3,R,ugm-3
03-01-2000,07:00,3,R,ugm-3,,,,,,,58,R,ugm-3,3,R,ugm-3
03-01-2000,08:00,5,R,ugm-3,,,,,,,42,R,ugm-3,3,R,ugm-3
03-01-2000,09:00,5,R,ugm-3,,,,,,,44,R,ugm-3,3,R,ugm-3
03-01-2000,10:00,6,R,ugm-3,,,,,,,46,R,ugm-3,5,R,ugm-3
03-01-2000,11:00,3,R,ugm-3,,,,,,,66,R,ugm-3,3,R,ugm-3
03-01-2000,12:00,5,R,ugm-3,,,,,,,62,R,ugm-3,3,R,ugm-3
03-01-2000,13:00,5,R,ugm-3,,,,,,,58,R,ugm-3,5,R,ugm-3
03-01-2000,14:00,3,R,ugm-3,,,,,,,64,R,ugm-3,3,R,ugm-3
03-01-2000,15:00,3,R,ugm-3,,,,,,,56,R,ugm-3,5,R,ugm-3
03-01-2000,16:00,3,R,ugm-3,,,,,,,48,R,ugm-3,5,R,ugm-3
03-01-2000,17:00,3,R,ugm-3,,,,,,,38,R,ugm-3,3,R,ugm-3
03-01-2000,18:00,3,R,ugm-3,,,,,,,42,R,ugm-3,3,R,ugm-3
03-01-2000,19:00,4,R,ugm-3,,,,,,,38,R,ugm-3,3,R,ugm-3
03-01-2000,20:00,3,R,ugm-3,,,,,,,32,R,ugm-3,3,R,ugm-3
03-01-2000,21:00,3,R,ugm-3,,,,,,,36,R,ugm-3,5,R,ugm-3
03-01-2000,22:00,3,R,ugm-3,,,,,,,40,R,ugm-3,5,R,ugm-3
03-01-2000,23:00,1,R,ugm-3,,,,,,,48,R,ugm-3,8,R,ugm-3
03-01-2000,24:00,3,R,ugm-3,,,,,,,52,R,ugm-3,5,R,ugm-3
04-01-2000,01:00,1,R,ugm-3,,,,,,,54,R,ugm-3,8,R,ugm-3
04-01-2000,02:00,1,R,ugm-3,,,,,,,54,R,ugm-3,3,R,ugm-3
04-01-2000,03:00,1,R,ugm-3,,,,,,,54,R,ugm-3,3,R,ugm-3
04-01-2000,04:00,1,R,ugm-3,,,,,,,50,R,ugm-3,3,R,ugm-3
04-01-2000,05:00,1,R,ugm-3,,,,,,,46,R,ugm-3,3,R,ugm-3
04-01-2000,06:00,1,R,ugm-3,,,,,,,48,R,ugm-3,3,R,ugm-3
04-01-2000,07:00,1,R,ugm-3,,,,,,,40,R,ugm-3,3,R,ugm-3
04-01-2000,08:00,1,R,ugm-3,,,,,,,38,R,ugm-3,3,R,ugm-3
04-01-2000,09:00,1,R,ugm-3,,,,,,,44,R,ugm-3,3,R,ugm-3
04-01-2000,10:00,1,R,ugm-3,,,,,,,34,R,ugm-3,3,R,ugm-3
04-01-2000,11:00,1,R,ugm-3,,,,,,,36,R,ugm-3,3,R,ugm-3
04-01-2000,12:00,1,R,ugm-3,,,,,,,38,R,ugm-3,3,R,ugm-3
04-01-2000,13:00,,,,,,,,,,,,,,,
04-01-2000,14:00,,,,,,,,,,46,R,ugm-3,5,R,ugm-3
04-01-2000,15:00,3,R,ugm-3,,,,,,,60,R,ugm-3,5,R,ugm-3
04-01-2000,16:00,5,R,ugm-3,,,,,,,52,R,ugm-3,3,R,ugm-3
04-01-2000,17:00,3,R,ugm-3,,,,,,,48,R,ugm-3,3,R,ugm-3
04-01-2000,18:00,5,R,ugm-3,,,,,,,52,R,ugm-3,3,R,ugm-3
04-01-2000,19:00,11,R,ugm-3,,,,,,,50,R,ugm-3,3,R,ugm-3
04-01-2000,20:00,3,R,ugm-3,,,,,,,56,R,ugm-3,3,R,ugm-3
04-01-2000,21:00,6,R,ugm-3,,,,,,,54,R,ugm-3,3,R,ugm-3
04-01-2000,22:00,1,R,ugm-3,,,,,,,68,R,ugm-3,5,R,ugm-3
04-01-2000,23:00,1,R,ugm-3,,,,,,,72,R,ugm-3,3,R,ugm-3
04-01-2000,24:00,1,R,ugm-3,,,,,,,74,R,ugm-3,5,R,ugm-3
05-01-2000,01:00,1,R,ugm-3,,,,,,,72,R,ugm-3,5,R,ugm-3
05-01-2000,02:00,1,R,ugm-3,,,,,,,60,R,ugm-3,3,R,ugm-3
05-01-2000,03:00,1,R,ugm-3,,,,,,,52,R,ugm-3,5,R,ugm-3
05-01-2000,04:00,1,R,ugm-3,,,,,,,44,R,ugm-3,3,R,ugm-3
05-01-2000,05:00,1,R,ugm-3,,,,,,,40,R,ugm-3,5,R,ugm-3
05-01-2000,06:00,1,R,ugm-3,,,,,,,38,R,ugm-3,3,R,ugm-3
05-01-2000,07:00,0,R,ugm-3,,,,,,,36,R,ugm-3,3,R,ugm-3
05-01-2000,08:00,0,R,ugm-3,,,,,,,34,R,ugm-3,3,R,ugm-3
05-01-2000,09:00,0,R,ugm-3,,,,,,,28,R,ugm-3,3,R,ugm-3
05-01-2000,10:00,0,R,ugm-3,,,,,,,32,R,ugm-3,3,R,ugm-3
05-01-2000,11:00,0,R,ugm-3,,,,,,,32,R,ugm-3,3,R,ugm-3
05-01-2000,12:00,1,R,ugm-3,,,,,,,34,R,ugm-3,3,R,ugm-3
05-01-2000,13:00,1,R,ugm-3,,,,,,,38,R,ugm-3,3,R,ugm-3
05-01-2000,14:00,1,R,ugm-3,,,,,,,32,R,ugm-3,5,R,ugm-3
05-01-2000,15:00,1,R,ugm-3,,,,,,,28,R,ugm-3,3,R,ugm-3
05-01-2000,16:00,1,R,ugm-3,,,,,,,34,R,ugm-3,3,R,ugm-3
05-01-2000,17:00,1,R,ugm-3,,,,,,,32,R,ugm-3,3,R,ugm-3
05-01-2000,18:00,1,R,ugm-3,,,,,,,36,R,ugm-3,3,R,ugm-3
05-01-2000,19:00,1,R,ugm-3,,,,,,,32,R,ugm-3,3,R,ugm-3
05-01-2000,20:00,1,R,ugm-3,,,,,,,34,R,ugm-3,3,R,ugm-3
05-01-2000,21:00,1,R,ugm-3,,,,,,,36,R,ugm-3,3,R,ugm-3
05-01-2000,22:00,1,R,ugm-3,,,,,,,32,R,ugm-3,3,R,ugm-3
05-01-2000,23:00,0,R,ugm-3,,,,,,,34,R,ugm-3,3,R,ugm-3
05-01-2000,24:00,1,R,ugm-3,,,,,,,58,R,ugm-3,3,R,ugm-3
06-01-2000,01:00,1,R,ugm-3,,,,,,,66,R,ugm-3,5,R,ugm-3
06-01-2000,02:00,1,R,ugm-3,,,,,,,50,R,ugm-3,3,R,ugm-3
06-01-2000,03:00,1,R,ugm-3,,,,,,,64,R,ugm-3,3,R,ugm-3
06-01-2000,04:00,1,R,ugm-3,,,,,,,62,R,ugm-3,3,R,ugm-3
06-01-2000,05:00,1,R,ugm-3,,,,,,,62,R,ugm-3,3,R,ugm-3
06-01-2000,06:00,1,R,ugm-3,,,,,,,62,R,ugm-3,3,R,ugm-3
06-01-2000,07:00,1,R,ugm-3,,,,,,,64,R,ugm-3,3,R,ugm-3
06-01-2000,08:00,1,R,ugm-3,,,,,,,64,R,ugm-3,3,R,ugm-3
06-01-2000,09:00,3,R,ugm-3,,,,,,,60,R,ugm-3,3,R,ugm-3
06-01-2000,10:00,1,R,ugm-3,,,,,,,70,R,ugm-3,3,R,ugm-3
06-01-2000,11:00,15,R,ugm-3,,,,,,,58,R,ugm-3,5,R,ugm-3
06-01-2000,12:00,8,R,ugm-3,,,,,,,44,R,ugm-3,13,R,ugm-3
06-01-2000,13:00,4,R,ugm-3,,,,,,,56,R,ugm-3,3,R,ugm-3
06-01-2000,14:00,4,R,ugm-3,,,,,,,54,R,ugm-3,5,R,ugm-3
06-01-2000,15:00,4,R,ugm-3,,,,,,,52,R,ugm-3,5,R,ugm-3
06-01-2000,16:00,4,R,ugm-3,,,,,,,40,R,ugm-3,5,R,ugm-3
06-01-2000,17:00,4,R,ugm-3,,,,,,,20,R,ugm-3,3,R,ugm-3
06-01-2000,18:00,28,R,ugm-3,,,,,,,12,R,ugm-3,3,R,ugm-3
06-01-2000,19:00,26,R,ugm-3,,,,,,,14,R,ugm-3,8,R,ugm-3
06-01-2000,20:00,30,R,ugm-3,,,,,,,12,R,ugm-3,11,R,ugm-3
06-01-2000,21:00,11,R,ugm-3,,,,,,,22,R,ugm-3,11,R,ugm-3
06-01-2000,22:00,8,R,ugm-3,,,,,,,28,R,ugm-3,5,R,ugm-3
06-01-2000,23:00,3,R,ugm-3,,,,,,,46,R,ugm-3,5,R,ugm-3
06-01-2000,24:00,3,R,ugm-3,,,,,,,48,R,ugm-3,5,R,ugm-3
07-01-2000,01:00,1,R,ugm-3,,,,,,,50,R,ugm-3,5,R,ugm-3
07-01-2000,02:00,1,R,ugm-3,,,,,,,44,R,ugm-3,5,R,ugm-3
07-01-2000,03:00,1,R,ugm-3,,,,,,,44,R,ugm-3,5,R,ugm-3
07-01-2000,04:00,1,R,ugm-3,,,,,,,36,R,ugm-3,3,R,ugm-3
07-01-2000,05:00,1,R,ugm-3,,,,,,,38,R,ugm-3,3,R,ugm-3
07-01-2000,06:00,1,R,ugm-3,,,,,,,40,R,ugm-3,5,R,ugm-3
07-01-2000,07:00,1,R,ugm-3,,,,,,,38,R,ugm-3,3,R,ugm-3
07-01-2000,08:00,1,R,ugm-3,,,,,,,40,R,ugm-3,3,R,ugm-3
07-01-2000,09:00,1,R,ugm-3,,,,,,,50,R,ugm-3,3,R,ugm-3
07-01-2000,10:00,1,R,ugm-3,,,,,,,58,R,ugm-3,3,R,ugm-3
07-01-2000,11:00,1,R,ugm-3,,,,,,,58,R,ugm-3,3,R,ugm-3
07-01-2000,12:00,1,R,ugm-3,,,,,,,46,R,ugm-3,3,R,ugm-3
07-01-2000,13:00,1,R,ugm-3,,,,,,,58,R,ugm-3,3,R,ugm-3
07-01-2000,14:00,1,R,ugm-3,,,,,,,64,R,ugm-3,3,R,ugm-3
07-01-2000,15:00,1,R,ugm-3,,,,,,,54,R,ugm-3,3,R,ugm-3
07-01-2000,16:00,1,R,ugm-3,,,,,,,50,R,ugm-3,3,R,ugm-3
07-01-2000,17:00,1,R,ugm-3,,,,,,,54,R,ugm-3,3,R,ugm-3
07-01-2000,18:00,1,R,ugm-3,,,,,,,56,R,ugm-3,3,R,ugm-3
07-01-2000,19:00,1,R,ugm-3,,,,,,,46,R,ugm-3,3,R,ugm-3
07-01-2000,20:00,1,R,ugm-3,,,,,,,42,R,ugm-3,3,R,ugm-3
07-01-2000,21:00,1,R,ugm-3,,,,,,,38,R,ugm-3,3,R,ugm-3
07-01-2000,22:00,1,R,ugm-3,,,,,,,34,R,ugm-3,3,R,ugm-3
07-01-2000,23:00,1,R,ugm-3,,,,,,,46,R,ugm-3,35,R,ugm-3
07-01-2000,24:00,1,R,ugm-3,,,,,,,60,R,ugm-3,13,R,ugm-3
08-01-2000,01:00,3,R,ugm-3,,,,,,,68,R,ugm-3,8,R,ugm-3
08-01-2000,02:00,4,R,ugm-3,,,,,,,50,R,ugm-3,11,R,ugm-3
08-01-2000,03:00,1,R,ugm-3,,,,,,,70,R,ugm-3,8,R,ugm-3
08-01-2000,04:00,1,R,ugm-3,,,,,,,76,R,ugm-3,8,R,ugm-3
08-01-2000,05:00,1,R,ugm-3,,,,,,,76,R,ugm-3,11,R,ugm-3
08-01-2000,06:00,1,R,ugm-3,,,,,,,72,R,ugm-3,11,R,ugm-3
08-01-2000,07:00,1,R,ugm-3,,,,,,,70,R,ugm-3,8,R,ugm-3
08-01-2000,08:00,4,R,ugm-3,,,,,,,64,R,ugm-3,8,R,ugm-3
08-01-2000,09:00,8,R,ugm-3,,,,,,,56,R,ugm-3,8,R,ugm-3
08-01-2000,10:00,3,R,ugm-3,,,,,,,66,R,ugm-3,5,R,ugm-3
08-01-2000,11:00,3,R,ugm-3,,,,,,,62,R,ugm-3,3,R,ugm-3
08-01-2000,12:00,3,R,ugm-3,,,,,,,52,R,ugm-3,3,R,ugm-3
08-01-2000,13:00,3,R,ugm-3,,,,,,,56,R,ugm-3,5,R,ugm-3
08-01-2000,14:00,5,R,ugm-3,,,,,,,62,R,ugm-3,8,R,ugm-3
08-01-2000,15:00,3,R,ugm-3,,,,,,,72,R,ugm-3,5,R,ugm-3
08-01-2000,16:00,4,R,ugm-3,,,,,,,68,R,ugm-3,8,R,ugm-3
08-01-2000,17:00,4,R,ugm-3,,,,,,,58,R,ugm-3,8,R,ugm-3
08-01-2000,18:00,3,R,ugm-3,,,,,,,60,R,ugm-3,3,R,ugm-3
08-01-2000,19:00,4,R,ugm-3,,,,,,,46,R,ugm-3,3,R,ugm-3
08-01-2000,20:00,8,R,ugm-3,,,,,,,50,R,ugm-3,5,R,ugm-3
08-01-2000,21:00,3,R,ugm-3,,,,,,,60,R,ugm-3,3,R,ugm-3
08-01-2000,22:00,3,R,ugm-3,,,,,,,58,R,ugm-3,3,R,ugm-3
08-01-2000,23:00,3,R,ugm-3,,,,,,,52,R,ugm-3,3,R,ugm-3
08-01-2000,24:00,8,R,ugm-3,,,,,,,42,R,ugm-3,3,R,ugm-3
09-01-2000,01:00,1,R,ugm-3,,,,,,,62,R,ugm-3,5,R,ugm-3
09-01-2000,02:00,1,R,ugm-3,,,,,,,72,R,ugm-3,3,R,ugm-3
09-01-2000,03:00,1,R,ugm-3,,,,,,,68,R,ugm-3,3,R,ugm-3
09-01-2000,04:00,1,R,ugm-3,,,,,,,64,R,ugm-3,5,R,ugm-3
09-01-2000,05:00,1,R,ugm-3,,,,,,,58,R,ugm-3,8,R,ugm-3
09-01-2000,06:00,1,R,ugm-3,,,,,,,54,R,ugm-3,8,R,ugm-3
09-01-2000,07:00,3,R,ugm-3,,,,,,,58,R,ugm-3,5,R,ugm-3
09-01-2000,08:00,10,R,ugm-3,,,,,,,54,R,ugm-3,11,R,ugm-3
09-01-2000,09:00,3,R,ugm-3,,,,,,,48,R,ugm-3,13,R,ugm-3
09-01-2000,10:00,3,R,ugm-3,,,,,,,56,R,ugm-3,5,R,ugm-3
09-01-2000,11:00,11,R,ugm-3,,,,,,,48,R,ugm-3,8,R,ugm-3
09-01-2000,12:00,13,R,ugm-3,,,,,,,30,R,ugm-3,11,R,ugm-3
09-01-2000,13:00,6,R,ugm-3,,,,,,,48,R,ugm-3,8,R,ugm-3
09-01-2000,14:00,3,R,ugm-3,,,,,,,60,R,ugm-3,5,R,ugm-3
09-01-2000,15:00,4,R,ugm-3,,,,,,,52,R,ugm-3,3,R,ugm-3
09-01-2000,16:00,4,R,ugm-3,,,,,,,34,R,ugm-3,5,R,ugm-3
09-01-2000,17:00,35,R,ugm-3,,,,,,,8,R,ugm-3,3,R,ugm-3
09-01-2000,18:00,18,R,ugm-3,,,,,,,16,R,ugm-3,5,R,ugm-3
09-01-2000,19:00,13,R,ugm-3,,,,,,,22,R,ugm-3,3,R,ugm-3
09-01-2000,20:00,8,R,ugm-3,,,,,,,24,R,ugm-3,3,R,ugm-3
09-01-2000,21:00,9,R,ugm-3,,,,,,,22,R,ugm-3,5,R,ugm-3
09-01-2000,22:00,5,R,ugm-3,,,,,,,28,R,ugm-3,5,R,ugm-3
09-01-2000,23:00,4,R,ugm-3,,,,,,,34,R,ugm-3,5,R,ugm-3
09-01-2000,24:00,3,R,ugm-3,,,,,,,42,R,ugm-3,5,R,ugm-3
10-01-2000,01:00,3,R,ugm-3,,,,,,,50,R,ugm-3,3,R,ugm-3
10-01-2000,02:00,1,R,ugm-3,,,,,,,64,R,ugm-3,8,R,ugm-3
10-01-2000,03:00,1,R,ugm-3,,,,,,,54,R,ugm-3,5,R,ugm-3
10-01-2000,04:00,1,R,ugm-3,,,,,,,56,R,ugm-3,5,R,ugm-3
10-01-2000,05:00,1,R,ugm-3,,,,,,,50,R,ugm-3,5,R,ugm-3
10-01-2000,06:00,1,R,ugm-3,,,,,,,48,R,ugm-3,5,R,ugm-3
10-01-2000,07:00,1,R,ugm-3,,,,,,,42,R,ugm-3,3,R,ugm-3
10-01-2000,08:00,1,R,ugm-3,,,,,,,34,R,ugm-3,3,R,ugm-3
10-01-2000,09:00,1,R,ugm-3,,,,,,,32,R,ugm-3,3,R,ugm-3
10-01-2000,10:00,1,R,ugm-3,,,,,,,30,R,ugm-3,3,R,ugm-3
10-01-2000,11:00,3,R,ugm-3,,,,,,,26,R,ugm-3,5,R,ugm-3
10-01-2000,12:00,3,R,ugm-3,,,,,,,22,R,ugm-3,3,R,ugm-3
10-01-2000,13:00,1,R,ugm-3,,,,,,,28,R,ugm-3,3,R,ugm-3
10-01-2000,14:00,,,,,,,,,,,,,,,
10-01-2000,15:00,,,,,,,,,,,,,,,
10-01-2000,16:00,,,,,,,,,,,,,,,
10-01-2000,17:00,,,,,,,,,,,,,,,
10-01-2000,18:00,,,,,,,,,,,,,,,
10-01-2000,19:00,,,,,,,,,,,,,,,
10-01-2000,20:00,,,,,,,,,,,,,,,
10-01-2000,21:00,,,,,,,,,,,,,,,
10-01-2000,22:00,,,,,,,,,,,,,,,
10-01-2000,23:00,,,,,,,,,,,,,,,
10-01-2000,24:00,,,,,,,,,,,,,,,
11-01-2000,01:00,4,R,ugm-3,,,,,,,52,R,ugm-3,8,R,ugm-3
11-01-2000,02:00,4,R,ugm-3,,,,,,,46,R,ugm-3,5,R,ugm-3
11-01-2000,03:00,4,R,ugm-3,,,,,,,52,R,ugm-3,5,R,ugm-3
11-01-2000,04:00,4,R,ugm-3,,,,,,,52,R,ugm-3,5,R,ugm-3
11-01-2000,05:00,4,R,ugm-3,,,,,,,46,R,ugm-3,5,R,ugm-3
11-01-2000,06:00,4,R,ugm-3,,,,,,,44,R,ugm-3,5,R,ugm-3
11-01-2000,07:00,4,R,ugm-3,,,,,,,40,R,ugm-3,5,R,ugm-3
11-01-2000,08:00,4,R,ugm-3,,,,,,,42,R,ugm-3,5,R,ugm-3
11-01-2000,09:00,5,R,ugm-3,,,,,,,36,R,ugm-3,5,R,ugm-3
11-01-2000,10:00,5,R,ugm-3,,,,,,,40,R,ugm-3,5,R,ugm-3
11-01-2000,11:00,5,R,ugm-3,,,,,,,40,R,ugm-3,5,R,ugm-3
11-01-2000,12:00,5,R,ugm-3,,,,,,,40,R,ugm-3,5,R,ugm-3
11-01-2000,13:00,5,R,ugm-3,,,,,,,42,R,ugm-3,5,R,ugm-3
11-01-2000,14:00,3,R,ugm-3,,,,,,,46,R,ugm-3,5,R,ugm-3
11-01-2000,15:00,1,R,ugm-3,,,,,,,50,R,ugm-3,5,R,ugm-3
11-01-2000,16:00,0,R,ugm-3,,,,,,,44,R,ugm-3,5,R,ugm-3
11-01-2000,17:00,4,R,ugm-3,,,,,,,42,R,ugm-3,5,R,ugm-3
11-01-2000,18:00,4,R,ugm-3,,,,,,,46,R,ugm-3,5,R,ugm-3
11-01-2000,19:00,4,R,ugm-3,,,,,,,40,R,ugm-3,3,R,ugm-3
11-01-2000,20:00,4,R,ugm-3,,,,,,,42,R,ugm-3,3,R,ugm-3
11-01-2000,21:00,4,R,ugm-3,,,,,,,46,R,ugm-3,3,R,ugm-3
11-01-2000,22:00,4,R,ugm-3,,,,,,,48,R,ugm-3,3,R,ugm-3
11-01-2000,23:00,4,R,ugm-3,,,,,,,48,R,ugm-3,5,R,ugm-3
11-01-2000,24:00,5,R,ugm-3,,,,,,,52,R,ugm-3,5,R,ugm-3
12-01-2000,01:00,5,R,ugm-3,,,,,,,48,R,ugm-3,5,R,ugm-3
12-01-2000,02:00,5,R,ugm-3,,,,,,,54,R,ugm-3,5,R,ugm-3
12-01-2000,03:00,5,R,ugm-3,,,,,,,60,R,ugm-3,3,R,ugm-3
12-01-2000,04:00,5,R,ugm-3,,,,,,,64,R,ugm-3,3,R,ugm-3
12-01-2000,05:00,5,R,ugm-3,,,,,,,62,R,ugm-3,3,R,ugm-3
12-01-2000,06:00,5,R,ugm-3,,,,,,,54,R,ugm-3,5,R,ugm-3
12-01-2000,07:00,5,R,ugm-3,,,,,,,56,R,ugm-3,3,R,ugm-3
12-01-2000,08:00,5,R,ugm-3,,,,,,,54,R,ugm-3,3,R,ugm-3
12-01-2000,09:00,5,R,ugm-3,,,,,,,48,R,ugm-3,3,R,ugm-3
12-01-2000,10:00,5,R,ugm-3,,,,,,,60,R,ugm-3,3,R,ugm-3
12-01-2000,11:00,8,R,ugm-3,,,,,,,44,R,ugm-3,3,R,ugm-3
12-01-2000,12:00,5,R,ugm-3,,,,,,,30,R,ugm-3,3,R,ugm-3
12-01-2000,13:00,6,R,ugm-3,,,,,,,22,R,ugm-3,3,R,ugm-3
12-01-2000,14:00,11,R,ugm-3,,,,,,,12,R,ugm-3,3,R,ugm-3
12-01-2000,15:00,16,R,ugm-3,,,,,,,8,R,ugm-3,3,R,ugm-3
12-01-2000,16:00,23,R,ugm-3,,,,,,,6,R,ugm-3,3,R,ugm-3
12-01-2000,17:00,1,R,ugm-3,,,,,,,40,R,ugm-3,3,R,ugm-3
12-01-2000,18:00,4,R,ugm-3,,,,,,,40,R,ugm-3,3,R,ugm-3
12-01-2000,19:00,5,R,ugm-3,,,,,,,44,R,ugm-3,3,R,ugm-3
12-01-2000,20:00,5,R,ugm-3,,,,,,,42,R,ugm-3,3,R,ugm-3
12-01-2000,21:00,5,R,ugm-3,,,,,,,42,R,ugm-3,3,R,ugm-3
12-01-2000,22:00,5,R,ugm-3,,,,,,,56,R,ugm-3,3,R,ugm-3
12-01-2000,23:00,5,R,ugm-3,,,,,,,58,R,ugm-3,3,R,ugm-3
12-01-2000,24:00,5,R,ugm-3,,,,,,,58,R,ugm-3,5,R,ugm-3
13-01-2000,01:00,3,R,ugm-3,,,,,,,54,R,ugm-3,8,R,ugm-3
13-01-2000,02:00,3,R,ugm-3,,,,,,,50,R,ugm-3,5,R,ugm-3
13-01-2000,03:00,3,R,ugm-3,,,,,,,56,R,ugm-3,5,R,ugm-3
13-01-2000,04:00,3,R,ugm-3,,,,,,,56,R,ugm-3,5,R,ugm-3
13-01-2000,05:00,3,R,ugm-3,,,,,,,52,R,ugm-3,5,R,ugm-3
13-01-2000,06:00,3,R,ugm-3,,,,,,,46,R,ugm-3,3,R,ugm-3
13-01-2000,07:00,3,R,ugm-3,,,,,,,36,R,ugm-3,5,R,ugm-3
13-01-2000,08:00,9,R,ugm-3,,,,,,,16,R,ugm-3,3,R,ugm-3
13-01-2000,09:00,33,R,ugm-3,,,,,,,8,R,ugm-3,5,R,ugm-3
13-01-2000,10:00,90,R,ugm-3,,,,,,,6,R,ugm-3,8,R,ugm-3
13-01-2000,11:00,75,R,ugm-3,,,,,,,8,R,ugm-3,11,R,ugm-3
13-01-2000,12:00,40,R,ugm-3,,,,,,,10,R,ugm-3,13,R,ugm-3
13-01-2000,13:00,20,R,ugm-3,,,,,,,18,R,ugm-3,11,R,ugm-3
13-01-2000,14:00,23,R,ugm-3,,,,,,,16,R,ugm-3,11,R,ugm-3
13-01-2000,15:00,21,R,ugm-3,,,,,,,14,R,ugm-3,11,R,ugm-3
13-01-2000,16:00,29,R,ugm-3,,,,,,,14,R,ugm-3,8,R,ugm-3
13-01-2000,17:00,54,R,ugm-3,,,,,,,10,R,ugm-3,5,R,ugm-3
13-01-2000,18:00,71,R,ugm-3,,,,,,,8,R,ugm-3,11,R,ugm-3
13-01-2000,19:00,39,R,ugm-3,,,,,,,6,R,ugm-3,8,R,ugm-3
13-01-2000,20:00,18,R,ugm-3,,,,,,,4,R,ugm-3,5,R,ugm-3
13-01-2000,21:00,25,R,ugm-3,,,,,,,6,R,ugm-3,8,R,ugm-3
13-01-2000,22:00,36,R,ugm-3,,,,,,,6,R,ugm-3,5,R,ugm-3
13-01-2000,23:00,23,R,ugm-3,,,,,,,10,R,ugm-3,5,R,ugm-3
13-01-2000,24:00,9,R,ugm-3,,,,,,,20,R,ugm-3,5,R,ugm-3
14-01-2000,01:00,3,R,ugm-3,,,,,,,42,R,ugm-3,8,R,ugm-3
14-01-2000,02:00,3,R,ugm-3,,,,,,,44,R,ugm-3,5,R,ugm-3
14-01-2000,03:00,3,R,ugm-3,,,,,,,22,R,ugm-3,8,R,ugm-3
14-01-2000,04:00,3,R,ugm-3,,,,,,,30,R,ugm-3,3,R,ugm-3
14-01-2000,05:00,3,R,ugm-3,,,,,,,34,R,ugm-3,8,R,ugm-3
14-01-2000,06:00,5,R,ugm-3,,,,,,,26,R,ugm-3,5,R,ugm-3
14-01-2000,07:00,11,R,ugm-3,,,,,,,16,R,ugm-3,3,R,ugm-3
14-01-2000,08:00,18,R,ugm-3,,,,,,,16,R,ugm-3,5,R,ugm-3
14-01-2000,09:00,15,R,ugm-3,,,,,,,20,R,ugm-3,5,R,ugm-3
14-01-2000,10:00,14,R,ugm-3,,,,,,,22,R,ugm-3,5,R,ugm-3
14-01-2000,11:00,8,R,ugm-3,,,,,,,24,R,ugm-3,8,R,ugm-3
14-01-2000,12:00,4,R,ugm-3,,,,,,,28,R,ugm-3,5,R,ugm-3
14-01-2000,13:00,4,R,ugm-3,,,,,,,22,R,ugm-3,3,R,ugm-3
14-01-2000,14:00,3,R,ugm-3,,,,,,,18,R,ugm-3,3,R,ugm-3
14-01-2000,15:00,3,R,ugm-3,,,,,,,26,R,ugm-3,3,R,ugm-3
14-01-2000,16:00,3,R,ugm-3,,,,,,,24,R,ugm-3,3,R,ugm-3
14-01-2000,17:00,3,R,ugm-3,,,,,,,24,R,ugm-3,3,R,ugm-3
14-01-2000,18:00,3,R,ugm-3,,,,,,,22,R,ugm-3,3,R,ugm-3
14-01-2000,19:00,1,R,ugm-3,,,,,,,22,R,ugm-3,3,R,ugm-3
14-01-2000,20:00,0,R,ugm-3,,,,,,,24,R,ugm-3,3,R,ugm-3
14-01-2000,21:00,1,R,ugm-3,,,,,,,24,R,ugm-3,3,R,ugm-3
14-01-2000,22:00,0,R,ugm-3,,,,,,,30,R,ugm-3,3,R,ugm-3
14-01-2000,23:00,0,R,ugm-3,,,,,,,34,R,ugm-3,3,R,ugm-3
14-01-2000,24:00,1,R,ugm-3,,,,,,,34,R,ugm-3,3,R,ugm-3
15-01-2000,01:00,1,R,ugm-3,,,,,,,36,R,ugm-3,3,R,ugm-3
15-01-2000,02:00,0,R,ugm-3,,,,,,,32,R,ugm-3,3,R,ugm-3
15-01-2000,03:00,1,R,ugm-3,,,,,,,34,R,ugm-3,3,R,ugm-3
15-01-2000,04:00,0,R,ugm-3,,,,,,,36,R,ugm-3,3,R,ugm-3
15-01-2000,05:00,1,R,ugm-3,,,,,,,36,R,ugm-3,5,R,ugm-3
15-01-2000,06:00,1,R,ugm-3,,,,,,,34,R,ugm-3,5,R,ugm-3
15-01-2000,07:00,4,R,ugm-3,,,,,,,28,R,ugm-3,5,R,ugm-3
15-01-2000,08:00,3,R,ugm-3,,,,,,,24,R,ugm-3,3,R,ugm-3
15-01-2000,09:00,13,R,ugm-3,,,,,,,14,R,ugm-3,3,R,ugm-3
15-01-2000,10:00,14,R,ugm-3,,,,,,,18,R,ugm-3,8,R,ugm-3
15-01-2000,11:00,10,R,ugm-3,,,,,,,22,R,ugm-3,5,R,ugm-3
15-01-2000,12:00,11,R,ugm-3,,,,,,,24,R,ugm-3,8,R,ugm-3
15-01-2000,13:00,9,R,ugm-3,,,,,,,18,R,ugm-3,8,R,ugm-3
15-01-2000,14:00,8,R,ugm-3,,,,,,,22,R,ugm-3,11,R,ugm-3
15-01-2000,15:00,8,R,ugm-3,,,,,,,24,R,ugm-3,8,R,ugm-3
15-01-2000,16:00,16,R,ugm-3,,,,,,,16,R,ugm-3,8,R,ugm-3
15-01-2000,17:00,83,R,ugm-3,,,,,,,6,R,ugm-3,8,R,ugm-3
15-01-2000,18:00,119,R,ugm-3,,,,,,,4,R,ugm-3,8,R,ugm-3
15-01-2000,19:00,163,R,ugm-3,,,,,,,4,R,ugm-3,8,R,ugm-3
15-01-2000,20:00,180,R,ugm-3,,,,,,,4,R,ugm-3,11,R,ugm-3
15-01-2000,21:00,169,R,ugm-3,,,,,,,4,R,ugm-3,11,R,ugm-3
15-01-2000,22:00,170,R,ugm-3,,,,,,,4,R,ugm-3,16,R,ugm-3
15-01-2000,23:00,228,R,ugm-3,,,,,,,4,R,ugm-3,13,R,ugm-3
15-01-2000,24:00,191,R,ugm-3,,,,,,,4,R,ugm-3,13,R,ugm-3
16-01-2000,01:00,206,R,ugm-3,,,,,,,4,R,ugm-3,16,R,ugm-3
16-01-2000,02:00,156,R,ugm-3,,,,,,,2,R,ugm-3,13,R,ugm-3
16-01-2000,03:00,130,R,ugm-3,,,,,,,4,R,ugm-3,13,R,ugm-3
16-01-2000,04:00,130,R,ugm-3,,,,,,,4,R,ugm-3,16,R,ugm-3
16-01-2000,05:00,105,R,ugm-3,,,,,,,4,R,ugm-3,16,R,ugm-3
16-01-2000,06:00,111,R,ugm-3,,,,,,,4,R,ugm-3,13,R,ugm-3
16-01-2000,07:00,150,R,ugm-3,,,,,,,4,R,ugm-3,13,R,ugm-3
16-01-2000,08:00,124,R,ugm-3,,,,,,,4,R,ugm-3,11,R,ugm-3
16-01-2000,09:00,83,R,ugm-3,,,,,,,4,R,ugm-3,13,R,ugm-3
16-01-2000,10:00,71,R,ugm-3,,,,,,,8,R,ugm-3,8,R,ugm-3
16-01-2000,11:00,59,R,ugm-3,,,,,,,12,R,ugm-3,11,R,ugm-3
16-01-2000,12:00,48,R,ugm-3,,,,,,,14,R,ugm-3,13,R,ugm-3
16-01-2000,13:00,30,R,ugm-3,,,,,,,18,R,ugm-3,13,R,ugm-3
16-01-2000,14:00,29,R,ugm-3,,,,,,,18,R,ugm-3,16,R,ugm-3
16-01-2000,15:00,28,R,ugm-3,,,,,,,16,R,ugm-3,13,R,ugm-3
16-01-2000,16:00,13,R,ugm-3,,,,,,,16,R,ugm-3,8,R,ugm-3
16-01-2000,17:00,15,R,ugm-3,,,,,,,8,R,ugm-3,5,R,ugm-3
16-01-2000,18:00,41,R,ugm-3,,,,,,,6,R,ugm-3,5,R,ugm-3
16-01-2000,19:00,51,R,ugm-3,,,,,,,6,R,ugm-3,5,R,ugm-3
16-01-2000,20:00,21,R,ugm-3,,,,,,,12,R,ugm-3,3,R,ugm-3
16-01-2000,21:00,0,R,ugm-3,,,,,,,28,R,ugm-3,3,R,ugm-3
16-01-2000,22:00,0,R,ugm-3,,,,,,,38,R,ugm-3,3,R,ugm-3
16-01-2000,23:00,5,R,ugm-3,,,,,,,24,R,ugm-3,3,R,ugm-3
16-01-2000,24:00,5,R,ugm-3,,,,,,,14,R,ugm-3,5,R,ugm-3
17-01-2000,01:00,9,R,ugm-3,,,,,,,8,R,ugm-3,11,R,ugm-3
17-01-2000,02:00,6,R,ugm-3,,,,,,,16,R,ugm-3,11,R,ugm-3
17-01-2000,03:00,1,R,ugm-3,,,,,,,16,R,ugm-3,11,R,ugm-3
17-01-2000,04:00,6,R,ugm-3,,,,,,,16,R,ugm-3,11,R,ugm-3
17-01-2000,05:00,1,R,ugm-3,,,,,,,36,R,ugm-3,8,R,ugm-3
17-01-2000,06:00,3,R,ugm-3,,,,,,,30,R,ugm-3,8,R,ugm-3
17-01-2000,07:00,0,R,ugm-3,,,,,,,40,R,ugm-3,5,R,ugm-3
17-01-2000,08:00,0,R,ugm-3,,,,,,,52,R,ugm-3,5,R,ugm-3
17-01-2000,09:00,1,R,ugm-3,,,,,,,46,R,ugm-3,5,R,ugm-3
17-01-2000,10:00,1,R,ugm-3,,,,,,,46,R,ugm-3,5,R,ugm-3
17-01-2000,11:00,1,R,ugm-3,,,,,,,54,R,ugm-3,5,R,ugm-3
17-01-2000,12:00,1,R,ugm-3,,,,,,,52,R,ugm-3,5,R,ugm-3
17-01-2000,13:00,1,R,ugm-3,,,,,,,54,R,ugm-3,5,R,ugm-3
17-01-2000,14:00,1,R,ugm-3,,,,,,,50,R,ugm-3,5,R,ugm-3
17-01-2000,15:00,4,R,ugm-3,,,,,,,26,R,ugm-3,5,R,ugm-3
17-01-2000,16:00,4,R,ugm-3,,,,,,,34,R,ugm-3,5,R,ugm-3
17-01-2000,17:00,1,R,ugm-3,,,,,,,40,R,ugm-3,5,R,ugm-3
17-01-2000,18:00,3,R,ugm-3,,,,,,,32,R,ugm-3,5,R,ugm-3
17-01-2000,19:00,3,R,ugm-3,,,,,,,38,R,ugm-3,5,R,ugm-3
17-01-2000,20:00,6,R,ugm-3,,,,,,,20,R,ugm-3,5,R,ugm-3
17-01-2000,21:00,5,R,ugm-3,,,,,,,12,R,ugm-3,3,R,ugm-3
17-01-2000,22:00,9,R,ugm-3,,,,,,,10,R,ugm-3,5,R,ugm-3
17-01-2000,23:00,1,R,ugm-3,,,,,,,28,R,ugm-3,5,R,ugm-3
17-01-2000,24:00,0,R,ugm-3,,,,,,,30,R,ugm-3,5,R,ugm-3
18-01-2000,01:00,0,R,ugm-3,,,,,,,26,R,ugm-3,3,R,ugm-3
18-01-2000,02:00,0,R,ugm-3,,,,,,,24,R,ugm-3,5,R,ugm-3
18-01-2000,03:00,0,R,ugm-3,,,,,,,20,R,ugm-3,3,R,ugm-3
18-01-2000,04:00,1,R,ugm-3,,,,,,,16,R,ugm-3,3,R,ugm-3
18-01-2000,05:00,0,R,ugm-3,,,,,,,20,R,ugm-3,3,R,ugm-3
18-01-2000,06:00,3,R,ugm-3,,,,,,,18,R,ugm-3,3,R,ugm-3
18-01-2000,07:00,6,R,ugm-3,,,,,,,14,R,ugm-3,3,R,ugm-3
18-01-2000,08:00,21,R,ugm-3,,,,,,,12,R,ugm-3,3,R,ugm-3
18-01-2000,09:00,31,R,ugm-3,,,,,,,12,R,ugm-3,3,R,ugm-3
18-01-2000,10:00,35,R,ugm-3,,,,,,,10,R,ugm-3,3,R,ugm-3
18-01-2000,11:00,45,R,ugm-3,,,,,,,10,R,ugm-3,3,R,ugm-3
18-01-2000,12:00,34,R,ugm-3,,,,,,,8,R,ugm-3,3,R,ugm-3
18-01-2000,13:00,39,R,ugm-3,,,,,,,8,R,ugm-3,5,R,ugm-3
18-01-2000,14:00,,,,,,,,,,,,,,,
18-01-2000,15:00,,,,,,,,,,,,,,,
18-01-2000,16:00,50,R,ugm-3,,,,,,,2,R,ugm-3,3,R,ugm-3
18-01-2000,17:00,73,R,ugm-3,,,,,,,4,R,ugm-3,3,R,ugm-3
18-01-2000,18:00,83,R,ugm-3,,,,,,,4,R,ugm-3,3,R,ugm-3
18-01-2000,19:00,80,R,ugm-3,,,,,,,4,R,ugm-3,3,R,ugm-3
18-01-2000,20:00,71,R,ugm-3,,,,,,,4,R,ugm-3,3,R,ugm-3
18-01-2000,21:00,29,R,ugm-3,,,,,,,6,R,ugm-3,3,R,ugm-3
18-01-2000,22:00,45,R,ugm-3,,,,,,,6,R,ugm-3,3,R,ugm-3
18-01-2000,23:00,59,R,ugm-3,,,,,,,4,R,ugm-3,3,R,ugm-3
18-01-2000,24:00,46,R,ugm-3,,,,,,,6,R,ugm-3,3,R,ugm-3
19-01-2000,01:00,43,R,ugm-3,,,,,,,6,R,ugm-3,8,R,ugm-3
19-01-2000,02:00,34,R,ugm-3,,,,,,,6,R,ugm-3,5,R,ugm-3
19-01-2000,03:00,41,R,ugm-3,,,,,,,6,R,ugm-3,5,R,ugm-3
19-01-2000,04:00,40,R,ugm-3,,,,,,,6,R,ugm-3,5,R,ugm-3
19-01-2000,05:00,48,R,ugm-3,,,,,,,4,R,ugm-3,3,R,ugm-3
19-01-2000,06:00,69,R,ugm-3,,,,,,,4,R,ugm-3,8,R,ugm-3
19-01-2000,07:00,85,R,ugm-3,,,,,,,4,R,ugm-3,5,R,ugm-3
19-01-2000,08:00,84,R,ugm-3,,,,,,,4,R,ugm-3,5,R,ugm-3
19-01-2000,09:00,79,R,ugm-3,,,,,,,4,R,ugm-3,5,R,ugm-3
19-01-2000,10:00,124,R,ugm-3,,,,,,,4,R,ugm-3,8,R,ugm-3